Regional Weather Roundup
Issued by NWS

Home | Current Version | Previous Version | Graphics & Text | Print | Product List | Glossary On
Versions: 1 2 3 4 5 6 7 8 9 10 11 12 13 14 15 16 17 18 19 20 21 22 23 24 25 26 27 28 29 30 31 32 33 34 35 36 37 38 39 40 41 42 43 44 45 46 47 48 49 50
000
ASUS45 KBOI 301410
RWRID

IDAHO REGIONAL WEATHER ROUNDUP
NATIONAL WEATHER SERVICE BOISE ID
800 AM MDT SUN AUG 30 2015

NOTE: "FAIR" INDICATES FEW OR NO CLOUDS BELOW 12000 FEET
WITH NO SIGNIFICANT WEATHER AND/OR OBSTRUCTIONS TO VISIBILITY

IDZ012-014-301500-
SOUTHWEST IDAHO


CITY           SKY/WX    TMP DP  RH WIND       PRES   REMARKS
BOISE          CLEAR     59  44  57 CALM      29.97R
CALDWELL       CLEAR     54  37  54 E7        29.97R
MOUNTAIN HOME  CLEAR     58  42  56 W5        29.97R
$$

IDZ016-017-301500-
SOUTHCENTRAL IDAHO


CITY           SKY/WX    TMP DP  RH WIND       PRES   REMARKS
BURLEY         SUNNY     57  50  77 S6        30.00R
JEROME         MOSUNNY   61  45  55 SW9       30.02R
TWIN FALLS     CLOUDY    65  42  43 S10       30.02R
$$

IDZ019>023-301500-
SOUTHEAST IDAHO


CITY           SKY/WX    TMP DP  RH WIND       PRES   REMARKS
IDAHO FALLS    MOSUNNY   61  49  64 SW14      30.01R
POCATELLO      SUNNY     62  48  60 S9        30.03R
REXBURG        MOSUNNY   60  50  69 SW8       30.02R
$$

IDZ006-010-011-018-031-032-301500-
CENTRAL IDAHO MOUNTAINS


CITY           SKY/WX    TMP DP  RH WIND       PRES   REMARKS
MCCALL         CLEAR     47  45  93 CALM      29.99R
HAILEY         MOSUNNY   54  50  87 NW8       30.06R
STANLEY          N/A     46  42  86 MISG      30.09R
SALMON         SUNNY     63  45  51 S3        29.92R
CHALLIS        SUNNY     55  49  80 SE3       30.00R
$$

IDZ002-004-006-007-026-301500-
NORTHERN IDAHO


CITY           SKY/WX    TMP DP  RH WIND       PRES   REMARKS
LEWISTON       MOCLDY    58  49  72 CALM      29.85R
LOWELL           N/A     58  55  90 CALM      29.90S
COEUR D`ALENE  PTCLDY    57  48  72 S9        29.85S
MULLAN PASS    PTCLDY    46  38  73 VRB3      29.96F
$$


USA.gov is the U.S. government's official web portal to all federal, state and local government web resources and services.